Location: Arrien
(42.8963°N, 1.0429°E)
Time: 04:28:01
(UTC+00:00)

NOAA 15 - Visible Passes

Search period start: 19 April 2026 00:00
Search period end: 29 April 2026 00:00
Orbit: 794 x 809 km, 98.5° (Epoch: 18 April)

Date Brightness Start Highest point End Pass type
(mag) Time Alt. Az. Time Alt. Az. Time Alt. Az.
21 Apr 7.4 19:45:13 10° SW 19:48:10 15° W 19:51:06 10° NW visible
22 Apr 7.0 19:17:18 10° SSW 19:21:38 26° W 19:26:00 10° NW visible
25 Apr 7.4 19:39:33 10° SW 19:42:51 17° W 19:46:09 10° NW visible
28 Apr 7.9 20:03:53 10° W 20:04:08 10° W 20:04:23 10° W visible
